Regional Weather Roundup
Issued by NWS

Home | Current Version | Previous Version | Graphics & Text | Print | Product List | Glossary On
Versions: 1 2 3 4 5 6 7 8 9 10 11 12 13 14 15 16 17 18 19 20 21 22 23 24 25 26 27 28 29 30 31 32 33 34 35 36 37 38 39 40 41 42 43 44 45 46 47 48 49 50
000
ASUS43 KDTX 222001
RWRMI
MICHIGAN HOURLY REGIONAL WEATHER ROUNDUP
NATIONAL WEATHER SERVICE DETROIT/PONTIAC MI
400 PM EDT WED MAR 22 2017

NOTE: "FAIR" INDICATES FEW OR NO CLOUDS BELOW 12,000 FEET WITH NO
SIGNIFICANT WEATHER AND/OR OBSTRUCTION TO VISIBILITY.

MIZ047>049-052>055-059>063-066>070-074>076-081>083-222100-
SOUTHEAST LOWER MICHIGAN

CITY           SKY/WX    TMP DP  RH WIND       PRES   REMARKS
ADRIAN         SUNNY     34  11  38 CALM      30.54F
ALMA           SUNNY     32   5  32 CALM      30.57F
ANN ARBOR      SUNNY     35   9  33 N5        30.52F WCI  31
BAD AXE        SUNNY     26   2  35 N7        30.57F WCI  19
CARO           SUNNY     30  11  44 N7        30.57S WCI  23
DETROIT CITY   SUNNY     34   8  33 N6        30.55F WCI  29
DETROIT        SUNNY     37   8  30 NE3       30.55F
GROSSE ILE     SUNNY     34  11  38 E7        30.54S WCI  27
HILLSDALE      SUNNY     34  12  40 SE3       30.50F
HOWELL         SUNNY     33   6  32 CALM      30.53F

CITY           SKY/WX    TMP DP  RH WIND       PRES   REMARKS
JACKSON        SUNNY     35   8  32 E5        30.53F WCI  31
LAMBERTVILLE   SUNNY     35  16  46 SE6       30.54F WCI  29
LANSING        SUNNY     34   4  28 CALM      30.56S
LAPEER         FAIR      32   9  38 W6        30.54S WCI  26
MASON          SUNNY     33  13  43 CALM      30.54F
MONROE         SUNNY     33  17  53 S8        30.54S WCI  25
MT. CLEMENS    MOSUNNY   31  10  40 NW6       30.54S WCI  26
PONTIAC        MOSUNNY   34   6  31 NW8       30.51F WCI  27
PORT HOPE        N/A     25  10  53 N7        30.57F WCI  17
PORT HURON     SUNNY     28  12  50 N7G18     30.57S WCI  21
TRI CITIES     SUNNY     29   9  43 SE5       30.59S WCI  24
MIDLAND        FAIR      34   2  26 CALM      30.57S
TROY           SUNNY     35   5  29 N6        30.55F WCI  30
SAGINAW HB     SUNNY     30   0  27 N6        30.59S WCI  24
$$
MIZ043>046-050>051-056>058-064>065-071>073-077>080-222100-
SOUTHWEST LOWER MICHIGAN

CITY           SKY/WX    TMP DP  RH WIND       PRES   REMARKS
BATTLE CREEK   SUNNY     36   9  32 VRB6      30.53F WCI  31
BENTON HARBOR  SUNNY     33  15  47 NW9       30.55F WCI  25
BIG RAPIDS     SUNNY     33   2  26 SE3       30.52F
COLDWATER      SUNNY     35  10  35 NE6       30.53S WCI  29
FREMONT        FAIR      34   4  27 NE3       30.54F
HOLLAND        SUNNY     36  12  37 E6        30.55F WCI  31
GRAND RAPIDS   MOSUNNY   35  11  36 S3        30.54F
IONIA          FAIR      33   6  32 CALM      30.54F
KALAMAZOO      SUNNY     36   7  29 VRB5      30.53F WCI  32
LUDINGTON      SUNNY     31  15  52 W6        30.57S WCI  26
MARSHALL       SUNNY     34   8  33 SE5       30.52F WCI  30
MOUNT PLEASANT SUNNY     32   0  26 NE3       30.56S
MUSKEGON       MOSUNNY   33  14  45 W10       30.57F WCI  25
SOUTH HAVEN    SUNNY     32  17  53 NW9       30.55F WCI  24
$$
MIZ016>042-222100-
NORTHERN LOWER MICHIGAN

CITY           SKY/WX    TMP DP  RH WIND       PRES   REMARKS
ALPENA         SUNNY     32   1  26 VRB3      30.55F
BEAVER ISLAND  SUNNY     27  11  51 SW8       30.58F WCI  19
BELLAIRE       SUNNY     29   9  43 NW5       30.58F WCI  24
CADILLAC       SUNNY     32  -1  24 S6        30.49F WCI  27
CHARLEVOIX     SUNNY     25  12  57 NW9       30.62F WCI  16
FRANKFORT      SUNNY     29  14  53 NW8G17    30.58F WCI  21
GAYLORD        SUNNY     30   3  31 W6        30.51S WCI  24
GRAYLING       SUNNY     32  -1  24 W5        30.53S WCI  28
HARBOR SPRINGS SUNNY     26   8  47 SW10      30.57F WCI  16
HOUGHTON LAKE  SUNNY     30  -1  26 SW8       30.53S WCI  22
MANISTEE       SUNNY     30  17  58 NW12G17   30.57F WCI  20
OSCODA         SUNNY     27  10  49 E7        30.57R WCI  19
PELLSTON       SUNNY     30   2  30 NW10      30.57S WCI  21
ROGERS CITY    SUNNY     26   4  37 N10       30.57F WCI  17
TRAVERSE CITY  MOSUNNY   28   9  44 NE9       30.57F WCI  19
$$
MIZ007>008-015-222100-
EASTERN UPPER MICHIGAN

CITY           SKY/WX    TMP DP  RH WIND       PRES   REMARKS
KINROSS        SUNNY     26   9  48 N10       30.53F WCI  16
MACKINAC ISLAN SUNNY     25   8  48 W9        30.55F WCI  16
NEWBERRY       SUNNY     29   7  38 N5        30.52F WCI  24
S. S. MARIE    SUNNY     25   6  44 NW12      30.55F WCI  14
MUNISING         N/A     27  16  63 NE12      30.55F WCI  17
$$
MIZ004>006-011>014-085-222100-
CENTRAL UPPER MICHIGAN

CITY           SKY/WX    TMP DP  RH WIND       PRES   REMARKS
MANISTIQUE     SUNNY     28  16  59 SW10G17   30.55F WCI  19
ESCANABA       SUNNY     27  15  61 S12       30.57F WCI  17
MENOMINEE        N/A     29  14  53 MISG        N/A
SAWYER-GWINN   SUNNY     30   9  40 CALM      30.49F
$$
MIZ001>003-009>011-084-222100-
WESTERN UPPER MICHIGAN

CITY           SKY/WX    TMP DP  RH WIND       PRES   REMARKS
IRON MOUNTAIN  SUNNY     34   3  27 VRB6      30.49F WCI  29
HOUGHTON       SUNNY     29   7  39 W6        30.50F WCI  23
COPPER HARBOR    N/A     26  11  52 NE6       30.55F WCI  19
IRONWOOD       CLOUDY    33   5  30 S6        30.47F WCI  28
$$

ABBREVIATIONS USED IN REMARKS
   TC - TEMPERATURE IN CELSIUS
  WCI - WIND CHILL INDEX
   HX - HEAT INDEX
  VSB - VISIBILITY





USA.gov is the U.S. government's official web portal to all federal, state and local government web resources and services.